Saranac Lake, NY

3:58 AM EDT on July 24, 2017 (GMT -0400)
Adirondack Regional

Weather History for KSLK - November, 2014

Change the Weather History Date:

Monday, November 24, 2014

  Actual Average Record
Temperature  
Mean Temperature 48 °F 29 °F  
Max Temperature 63 °F 38 °F 63 °F (2014)
Min Temperature 33 °F 19 °F -9 °F (2000)
Degree Days  
Heating Degree Days 17 36  
Month to date heating degree days 723 754  
Since 1 July heating degree days 1926 2046  
Cooling Degree Days 0 0  
Month to date cooling degree days 0 0  
Year to date cooling degree days 83 114  
Moisture  
Dew Point 46 °F    
Average Humidity 77    
Maximum Humidity 89    
Minimum Humidity 64    
Precipitation  
Precipitation 0.58 in 0.11 in 0.58 in (2014)
Month to date precipitation 1.82 2.71  
Year to date precipitation 33.01 34.59  
Sea Level Pressure  
Sea Level Pressure 29.50 in    
Wind  
Wind Speed 15 mph (SSW)    
Max Wind Speed 32 mph    
Max Gust Speed 47 mph    
Visibility 9 miles    
Events Rain    
T = Trace of Precipitation, MM = Missing Value Source: NWS Daily Summary

Daily Weather History Graph

Daily Weather History Graph

Search for Another Location

Airport or City:

Trip Planner

Search our weather history database for the weather conditions in past years. The results will help you decide how hot, cold, wet, or windy it might be!

Date:

Astronomy

Nov. 24, 2014 Rise Set
Actual Time 7:04 AM EST 4:22 PM EST
Civil Twilight 6:32 AM EST 4:54 PM EST
Nautical Twilight 5:56 AM EST 5:30 PM EST
Astronomical Twilight 5:21 AM EST 6:04 PM EST
Moon 8:54 AM EST 6:42 PM EST
Length of Visible Light 10h 22m
Length of Day
9h 17m
Waxing Crescent, 6% of the Moon is Illuminated
Nov 24
Waxing Crescent
Nov 29
First Quarter
Dec 6
Full
Dec 14
Last Quarter
Dec 21
New

Hourly Weather History & Observations

Time (EST) Temp. Windchill Dew Point Humidity Pressure Visibility Wind Dir Wind Speed Gust Speed Precip Events Conditions
12:51 AM 37.9 °F 33.5 °F 34.0 °F 86% 29.87 in 10.0 mi South 5.8 mph - N/A   Clear
1:51 AM 48.0 °F - 37.0 °F 66% 29.80 in 10.0 mi South 10.4 mph - N/A   Clear
2:51 AM 46.9 °F - 39.0 °F 74% 29.75 in 10.0 mi SSW 6.9 mph - N/A   Clear
3:51 AM 48.9 °F - 39.9 °F 71% 29.70 in 10.0 mi SSE 19.6 mph 35.7 mph 0.00 in Rain Light Rain
4:51 AM 46.0 °F 39.6 °F 42.1 °F 86% 29.63 in 5.0 mi SSE 15.0 mph 24.2 mph 0.07 in Rain Rain
5:51 AM 48.0 °F - 45.0 °F 89% 29.56 in 9.0 mi SSE 11.5 mph - 0.09 in Rain Light Rain
6:01 AM 48.9 °F - - N/A% 29.51 in 9.0 mi SSE 13.8 mph 23.0 mph 0.01 in Rain Light Rain
6:21 AM 51.1 °F - - N/A% 29.51 in 6.0 mi South 13.8 mph - 0.05 in Rain Rain
6:51 AM 51.1 °F - - N/A% 29.52 in 8.0 mi South 25.3 mph 44.9 mph 0.10 in Rain Light Rain
7:51 AM 51.1 °F - - N/A% 29.50 in 10.0 mi South 11.5 mph 20.7 mph 0.00 in   Unknown
8:51 AM 55.0 °F - - N/A% 29.47 in 10.0 mi South 15.0 mph 25.3 mph N/A   Overcast
9:07 AM 55.0 °F - - N/A% 29.45 in 10.0 mi SSW 21.9 mph 28.8 mph 0.00 in Rain Light Rain
9:51 AM 55.0 °F - - N/A% 29.47 in 10.0 mi South 19.6 mph 32.2 mph 0.00 in   Overcast
10:51 AM 59.0 °F - 53.1 °F 81% 29.44 in 10.0 mi SSW 24.2 mph 32.2 mph N/A   Mostly Cloudy
11:51 AM 62.1 °F - 53.1 °F 72% 29.40 in 10.0 mi SSW 18.4 mph 26.5 mph N/A   Clear
12:51 PM 62.1 °F - 50.0 °F 65% 29.39 in 10.0 mi SW 21.9 mph 28.8 mph N/A   Overcast
1:51 PM 62.1 °F - 50.0 °F 65% 29.36 in 10.0 mi SSW 16.1 mph - N/A   Overcast
2:51 PM 61.0 °F - 48.9 °F 64% 29.35 in 10.0 mi SSW 13.8 mph 28.8 mph N/A   Overcast
3:51 PM 59.0 °F - 50.0 °F 72% 29.35 in 10.0 mi SSW 13.8 mph - N/A   Mostly Cloudy
4:51 PM 57.0 °F - 51.1 °F 81% 29.36 in 6.0 mi SW 9.2 mph - 0.01 in Rain Light Rain
5:51 PM 55.0 °F - 51.1 °F 86% 29.38 in 10.0 mi SW 13.8 mph 20.7 mph 0.06 in   Overcast
6:51 PM 53.1 °F - - N/A% 29.38 in 10.0 mi SW 11.5 mph - N/A   Scattered Clouds
7:26 PM 52.0 °F - - N/A% 29.41 in 1.8 mi West 15.0 mph 27.6 mph 0.14 in Rain Heavy Rain
7:37 PM 51.1 °F - - N/A% 29.42 in 3.0 mi WSW 10.4 mph 21.9 mph 0.18 in Rain Rain
7:51 PM 51.1 °F - - N/A% 29.43 in 3.0 mi SW 10.4 mph 18.4 mph 0.22 in Rain Rain
8:51 PM 51.1 °F - - N/A% 29.46 in 10.0 mi SW 13.8 mph 25.3 mph 0.03 in   Scattered Clouds
9:33 PM 51.1 °F - - N/A% 29.48 in 10.0 mi WSW 15.0 mph 28.8 mph N/A   Mostly Cloudy
9:46 PM 50.0 °F - - N/A% 29.48 in 10.0 mi WSW 13.8 mph 21.9 mph N/A   Scattered Clouds
9:51 PM 50.0 °F - - N/A% 29.48 in 10.0 mi WSW 11.5 mph - N/A   Scattered Clouds
10:51 PM 48.9 °F - - N/A% 29.52 in 10.0 mi SW 18.4 mph 25.3 mph N/A   Mostly Cloudy
11:40 PM 46.0 °F 39.3 °F - N/A% 29.55 in 10.0 mi SW 16.1 mph 20.7 mph N/A   Overcast
11:51 PM 45.0 °F 37.9 °F - N/A% 29.55 in 10.0 mi SW 16.1 mph 24.2 mph N/A   Mostly Cloudy